Tracking 18844 objects as of 21-Nov-2017
HD Live streaming from Space Station
objects crossing your sky now

GGSE 1 (GGRS)

Track GGSE 1 (GGRS) now!
10-day predictions
GGSE 1 (GGRS) is classified as:


NORAD ID: 728
Int'l Code: 1964-001B
Perigee: 902.9 km
Apogee: 919.1 km
Inclination: 69.9 °
Period: 103.1 minutes
Semi major axis: 7281 km
RCS: 0.3887 m2 (medium)
Launch date: January 11, 1964
Source: United States (US)
Launch site: AIR FORCE WESTERN TEST RANGE (AFWTR)
aabbcc
Your satellite tracking list
Your tracking list is empty




NASA's NSSDC Master Catalog

Two Line Element Set (TLE):
1   728U 64001B   17324.88197371 -.00000007 +00000-0 +33604-4 0  9997
2   728 069.9068 099.9951 0011118 048.9569 311.2495 13.97098180742387
Source of the keplerian elements: AFSPC